Flag for Philippines Weather past 2 weeks in Tarlac City, Philippines

Now
68 °F

Partly cloudy.


Feels Like: 68 °F
Forecast: 67 / 84 °F
Wind: 9 mph from Northwest

Location: Clarkfield Pampanga International Airport

Current Time: Feb 2, 2015 at 5:46:50 AM

Latest Report: Feb 2, 2015 at 5:00 AM


Visibility: N/A

Pressure: 30.09 "Hg

Humidity: 78%

Dew point: 61 °F

Location of Tarlac CityLocation

Historic Weather in Tarlac City — Graph

°F

Tarlac City temperature yesterday

Maximum temperature yesterday: 81 °F (at 1:00 PM)
Minimum temperature yesterday: 70 °F (at 6:00 AM)
Average temperature yesterday: 74 °F

Past Weeks' High & Low Weather Summary

 TemperatureHumidityPressure
High86 °F (Jan 20, 2:00 PM)100% (Jan 18, 5:00 PM)30.12 "Hg (Jan 18, 5:00 PM)
Low66 °F (Jan 19, 7:00 AM)48% (Jan 31, 11:00 AM)29.83 "Hg (Jan 18, 3:00 PM)
Average76 °F75%29.98 "Hg
* Reported Jan 18 4:00 AM — Feb 2 4:00 AM, Tarlac City, Weather by CustomWeather, © 2014

Note: Actual official high and low records may vary slightly from our data, if they occured in-between our weather recording intervals... More about our weather records

Advertising

Tarlac City weather history for previous 24 hours

 ConditionsComfort  
Time TempWeatherWind HumidityBarometerVisibility
4:00 AM
Feb 2
68 °FPassing clouds.7 mph83%30.09 "HgN/A
3:00 AM68 °FPassing clouds.8 mph83%30.09 "HgN/A
2:00 AM70 °FPassing clouds.8 mph78%30.09 "HgN/A
1:00 AM70 °FPassing clouds.8 mph78%30.12 "HgN/A
12:00 AM70 °FPassing clouds.8 mph78%30.12 "HgN/A
11:00 PM
Feb 1
70 °FPassing clouds.8 mph78%30.12 "HgN/A
10:00 PM70 °FPassing clouds.9 mph83%30.09 "HgN/A
9:00 PM70 °FPassing clouds.7 mph83%30.09 "HgN/A
8:00 PM72 °FPassing clouds.5 mph83%30.09 "HgN/A
7:00 PM73 °FMild.6 mph78%30.07 "HgN/A
6:00 PM77 °FWarm.8 mph69%30.04 "HgN/A
5:00 PM79 °FBroken clouds.9 mph65%30.01 "HgN/A
4:00 PM81 °FBroken clouds.12 mph58%30.01 "HgN/A
3:00 PM81 °FBroken clouds.9 mph62%30.01 "HgN/A
2:00 PM77 °FWarm.9 mph69%30.04 "HgN/A
1:00 PM81 °FBroken clouds.9 mph62%30.04 "HgN/A
12:00 PM79 °FBroken clouds.9 mph51%30.07 "HgN/A
11:00 AM77 °FBroken clouds.8 mph69%30.09 "HgN/A
10:00 AM75 °FSprinkles. More clouds than sun.9 mph74%30.09 "Hg6 mi
9:00 AM73 °FBroken clouds.6 mph78%30.09 "HgN/A
8:00 AM72 °FBroken clouds.8 mph83%30.09 "HgN/A
7:00 AM72 °FBroken clouds.6 mph78%30.07 "HgN/A
6:00 AM70 °FPartly cloudy.7 mph83%30.04 "HgN/A
5:00 AM72 °FPassing clouds.5 mph78%30.04 "HgN/A
Weather by CustomWeather, © 2014

See weather overviewHow to use our weather pages